DW4839 Weather Reports


time (UTC)temp
C
wind
direction
speed
KPH
gust
KPH
rain 1hr
cm
rain 24hr
cm
rain mn
cm
humidity
%
barometer
mb
20260505193052 13 167 1.6 4.8 0.00 0.00 0.00 79 1016.9
20260505191556 13 21 3.2 9.7 0.00 0.00 0.00 81 1017.0
20260505190110 12 234 4.8 9.7 0.00 0.00 0.00 81 1016.9
20260505184604 12 18 0.0 6.4 0.00 0.00 0.00 84 1016.9
20260505183052 12 134 1.6 6.4 0.00 0.00 0.00 86 1017.1
20260505181549 12 0 1.6 4.8 0.00 0.00 0.00 86 1016.9
20260505180056 11 267 4.8 8.0 0.00 0.00 0.00 86 1016.8
20260505174550 11 0 1.6 8.0 0.00 0.00 0.00 87 1016.8
20260505173053 11 208 3.2 8.0 0.00 0.00 0.00 87 1016.6
20260505171553 11 264 1.6 4.8 0.00 0.00 0.00 87 1016.5
20260505170108 11 275 3.2 6.4 0.00 0.00 0.00 88 1016.5
20260505164549 11 226 1.6 8.0 0.00 0.00 0.00 87 1016.4
20260505163102 11 187 4.8 11.3 0.00 0.00 0.00 87 1016.4
20260505161552 11 228 3.2 4.8 0.00 0.00 0.00 88 1016.2
20260505153104 10 173 3.2 8.0 0.00 0.00 0.00 90 1016.1
20260505151554 10 236 3.2 11.3 0.00 0.00 0.00 90 1016.1
20260505150112 10 192 3.2 11.3 0.00 0.00 0.00 90 1016.1
20260505140104 10 202 3.2 11.3 0.00 0.00 0.00 90 1015.4
20260505124548 10 169 4.8 9.7 0.00 0.00 0.00 90 1015.1
20260505123106 10 173 4.8 11.3 0.00 0.00 0.00 89 1014.9
20260505121553 10 210 4.8 9.7 0.00 0.00 0.00 89 1015.0
20260505120053 10 194 1.6 6.4 0.00 0.00 0.00 89 1015.0
20260505114600 10 212 3.2 6.4 0.00 0.00 0.00 89 1014.8
20260505113054 10 195 4.8 9.7 0.00 0.00 0.00 89 1014.9
20260505111559 10 211 4.8 9.7 0.00 0.00 0.00 88 1014.9
20260505101553 10 215 3.2 9.7 0.00 0.00 0.00 88 1014.4
20260505100054 10 198 3.2 12.9 0.00 0.00 0.00 88 1014.4
20260505094552 10 190 3.2 11.3 0.00 0.00 0.00 89 1014.4
20260505093050 10 184 6.4 9.7 0.00 0.00 0.00 89 1014.3
20260505091551 10 194 4.8 9.7 0.00 0.00 0.00 88 1014.2
20260505090106 10 200 3.2 9.7 0.00 0.00 0.00 88 1014.0
20260505084548 10 216 3.2 9.7 0.00 0.00 0.00 88 1014.0
20260505083046 10 213 6.4 12.9 0.00 0.00 0.00 87 1014.1
20260505081552 11 202 3.2 8.0 0.00 0.00 0.00 86 1013.8
20260505080053 11 192 3.2 8.0 0.00 0.00 0.00 86 1013.8
20260505074548 11 213 3.2 9.7 0.00 0.00 0.00 85 1013.8
20260505073057 11 177 4.8 12.9 0.00 0.00 0.00 85 1013.5
20260505071555 11 211 8.0 16.1 0.00 0.00 0.00 84 1013.4
20260505070059 11 207 8.0 14.5 0.00 0.00 0.00 84 1013.4
20260505064556 12 214 8.0 16.1 0.00 0.00 0.00 84 1013.1
20260505063102 12 189 8.0 16.1 0.00 0.00 0.00 83 1013.0
20260505061550 12 197 8.0 12.9 0.00 0.00 0.00 82 1012.9
20260505060057 13 205 6.4 17.7 0.00 0.00 0.00 81 1012.7
20260505054557 13 217 4.8 11.3 0.00 0.00 0.00 79 1012.7
20260505053056 14 209 4.8 9.7 0.00 0.00 0.00 78 1012.8
20260505051551 15 214 4.8 9.7 0.00 0.00 0.00 78 1012.6
20260505050126 15 207 1.6 4.8 0.00 0.00 0.00 78 1012.5
20260505041604 16 202 4.8 11.3 0.00 0.00 0.00 75 1011.8
20260505040101 17 219 4.8 11.3 0.00 0.00 0.00 75 1011.6
20260505034551 17 204 6.4 12.9 0.00 0.00 0.00 76 1011.4
20260505033051 17 208 8.0 22.5 0.00 0.00 0.00 75 1011.2
20260505031559 17 221 6.4 12.9 0.00 0.00 0.00 75 1011.1
20260505030053 17 210 6.4 16.1 0.00 0.00 0.00 74 1011.0
20260505024555 18 186 6.4 19.3 0.00 0.00 0.00 73 1011.0
20260505023054 18 204 6.4 14.5 0.00 0.00 0.00 72 1010.9
20260505021555 18 212 6.4 17.7 0.00 0.00 0.00 71 1010.9
20260505020053 18 213 8.0 14.5 0.00 0.00 0.00 70 1010.9
20260505014605 18 231 8.0 14.5 0.00 0.00 0.00 70 1010.8
20260505013052 19 211 8.0 16.1 0.00 0.00 0.00 69 1011.0
20260505011553 19 241 8.0 16.1 0.00 0.00 0.00 68 1011.2
20260505010057 20 205 8.0 16.1 0.00 0.00 0.00 67 1011.2
20260505004555 20 200 4.8 19.3 0.00 0.00 0.00 66 1011.3
20260505003106 20 194 8.0 17.7 0.00 0.00 0.00 66 1011.4
20260505001611 20 238 6.4 16.1 0.00 0.00 0.00 65 1011.4
20260505000131 20 177 6.4 20.9 0.00 0.00 0.00 64 1011.5
20260504234610 20 188 6.4 20.9 0.00 0.00 0.00 66 1011.4
20260504233106 20 167 8.0 22.5 0.00 0.00 0.00 66 1011.5
20260504231553 20 236 8.0 19.3 0.00 0.00 0.00 65 1011.7
20260504230051 20 229 9.7 19.3 0.00 0.00 0.00 65 1011.8
20260504224606 19 171 6.4 16.1 0.00 0.00 0.00 66 1011.9
20260504223051 19 192 4.8 14.5 0.00 0.00 0.00 67 1012.0
20260504221555 19 180 8.0 17.7 0.00 0.00 0.00 68 1012.1
20260504220058 18 186 11.3 17.7 0.00 0.00 0.00 68 1012.2
20260504214555 18 226 11.3 20.9 0.00 0.00 0.00 68 1012.3
20260504213112 18 175 6.4 14.5 0.00 0.00 0.00 69 1012.6
20260504211549 17 200 9.7 20.9 0.00 0.00 0.00 73 1012.8
20260504210053 17 228 8.0 17.7 0.00 0.00 0.00 71 1013.1
20260504204557 17 206 3.2 19.3 0.00 0.00 0.00 73 1013.3
20260504203112 16 150 8.0 16.1 0.00 0.00 0.00 71 1013.3
20260504201551 16 239 8.0 17.7 0.00 0.00 0.00 73 1013.5
20260504200053 16 200 4.8 14.5 0.00 0.00 0.00 74 1013.5
20260504194601 15 133 6.4 16.1 0.00 0.00 0.00 79 1013.6